Time,TemperatureF,DewpointF,PressureIn,WindDirection,WindDirectionDegrees,WindSpeedMPH,WindSpeedGustMPH,Humidity,HourlyPrecipIn,Conditions,Clouds,dailyrainin,SoftwareType,DateUTC
2013-07-18 00:01:00,75.1,58.8,30.04,SSE,158,4.4,4.4,57,0.00,BKN,,0.00,WeatherDisplay:10.37,2013-07-18 04:01:00,
2013-07-18 00:02:00,75.1,59.4,30.04,West,270,4.6,4.6,58,0.00,BKN,,0.00,WeatherDisplay:10.37,2013-07-18 04:02:00,
2013-07-18 00:03:00,75.0,59.7,30.04,South,180,4.6,4.6,59,0.00,BKN,,0.00,WeatherDisplay:10.37,2013-07-18 04:03:00,
2013-07-18 00:04:00,75.0,59.2,30.04,SSE,158,3.5,3.5,58,0.00,BKN,,0.00,WeatherDisplay:10.37,2013-07-18 04:04:00,
2013-07-18 00:06:00,75.0,59.2,30.04,WSW,248,4.6,4.6,58,0.00,BKN,,0.00,WeatherDisplay:10.37,2013-07-18 04:06:00,
2013-07-18 00:11:00,74.8,59.0,30.04,WSW,248,1.2,1.2,58,0.00,BKN,,0.00,WeatherDisplay:10.37,2013-07-18 04:11:00,
2013-07-18 00:16:00,74.6,58.8,30.04,West,270,2.3,0.0,58,0.00,BKN,,0.00,WeatherDisplay:10.37,2013-07-18 04:16:00,
2013-07-18 00:21:00,74.1,57.9,30.04,SW,225,0.0,0.0,57,0.00,BKN,,0.00,WeatherDisplay:10.37,2013-07-18 04:21:00,
2013-07-18 00:26:00,73.9,57.7,30.04,South,180,0.0,0.0,57,0.00,BKN,,0.00,WeatherDisplay:10.37,2013-07-18 04:26:00,
2013-07-18 00:31:00,73.9,58.1,30.04,SSW,202,0.0,0.0,58,0.00,BKN,,0.00,WeatherDisplay:10.37,2013-07-18 04:31:00,
2013-07-18 00:36:00,73.7,57.1,30.04,South,180,0.0,0.0,56,0.00,BKN,,0.00,WeatherDisplay:10.37,2013-07-18 04:36:00,
2013-07-18 00:41:00,73.8,58.6,30.04,SW,225,3.5,3.5,59,0.00,BKN,,0.00,WeatherDisplay:10.37,2013-07-18 04:41:00,
2013-07-18 00:46:00,73.7,57.5,30.04,South,180,3.5,3.5,57,0.00,BKN,,0.00,WeatherDisplay:10.37,2013-07-18 04:46:00,
2013-07-18 00:51:00,73.8,57.6,30.04,SSE,158,3.5,3.5,57,0.00,BKN,,0.00,WeatherDisplay:10.37,2013-07-18 04:51:00,
2013-07-18 00:56:00,73.6,58.4,30.04,East,90,6.9,6.9,59,0.00,BKN,,0.00,WeatherDisplay:10.37,2013-07-18 04:56:00,
2013-07-18 01:01:00,73.6,57.4,30.03,South,180,3.5,3.5,57,0.00,OVC,,0.00,WeatherDisplay:10.37,2013-07-18 05:01:00,
2013-07-18 01:06:00,73.5,56.9,30.03,SSW,202,1.2,1.2,56,0.00,OVC,,0.00,WeatherDisplay:10.37,2013-07-18 05:06:00,
2013-07-18 01:11:00,73.7,57.6,30.03,SE,135,4.6,4.6,57,0.00,OVC,,0.00,WeatherDisplay:10.37,2013-07-18 05:11:00,
2013-07-18 01:16:00,73.9,58.1,30.03,NW,315,4.6,4.6,58,0.00,OVC,,0.00,WeatherDisplay:10.37,2013-07-18 05:16:00,
2013-07-18 01:21:00,74.1,57.9,30.03,ENE,68,4.6,4.6,57,0.00,OVC,,0.00,WeatherDisplay:10.37,2013-07-18 05:21:00,
2013-07-18 01:26:00,74.4,58.7,30.03,SW,225,1.2,0.0,58,0.00,OVC,,0.00,WeatherDisplay:10.37,2013-07-18 05:26:00,
2013-07-18 01:31:00,74.6,59.3,30.03,SW,225,0.0,0.0,59,0.00,OVC,,0.00,WeatherDisplay:10.37,2013-07-18 05:31:00,
2013-07-18 01:36:00,74.6,58.9,30.03,SW,225,0.0,0.5,58,0.00,OVC,,0.00,WeatherDisplay:10.37,2013-07-18 05:36:00,
2013-07-18 01:41:00,74.6,57.8,30.03,NNW,338,3.5,3.5,56,0.00,OVC,,0.00,WeatherDisplay:10.37,2013-07-18 05:41:00,
2013-07-18 01:46:00,74.3,58.6,30.03,SW,225,0.0,0.0,58,0.00,OVC,,0.00,WeatherDisplay:10.37,2013-07-18 05:46:00,
2013-07-18 01:51:00,74.5,58.3,30.03,SW,225,0.0,0.0,57,0.00,OVC,,0.00,WeatherDisplay:10.37,2013-07-18 05:51:00,
2013-07-18 01:56:00,74.2,59.0,30.03,South,180,0.0,0.0,59,0.00,OVC,,0.00,WeatherDisplay:10.37,2013-07-18 05:56:00,
2013-07-18 02:01:00,74.1,57.9,30.03,SW,225,0.0,0.0,57,0.00,BKN,,0.00,WeatherDisplay:10.37,2013-07-18 06:01:00,
2013-07-18 02:06:00,74.2,58.5,30.03,SSW,202,1.2,1.2,58,0.00,BKN,,0.00,WeatherDisplay:10.37,2013-07-18 06:06:00,
2013-07-18 02:11:00,73.8,58.1,30.03,South,180,0.0,0.0,58,0.00,BKN,,0.00,WeatherDisplay:10.37,2013-07-18 06:11:00,
2013-07-18 02:16:00,73.5,57.3,30.03,WSW,248,3.5,3.5,57,0.00,BKN,,0.00,WeatherDisplay:10.37,2013-07-18 06:16:00,
2013-07-18 02:21:00,73.5,57.8,30.03,West,270,0.0,0.0,58,0.00,BKN,,0.00,WeatherDisplay:10.37,2013-07-18 06:21:00,
2013-07-18 02:26:00,73.3,57.1,30.03,SW,225,0.0,0.0,57,0.00,BKN,,0.00,WeatherDisplay:10.37,2013-07-18 06:26:00,
2013-07-18 02:31:00,73.3,57.6,30.03,SW,225,0.0,0.0,58,0.00,BKN,,0.00,WeatherDisplay:10.37,2013-07-18 06:31:00,
2013-07-18 02:36:00,73.2,57.5,30.03,NW,315,0.0,0.0,58,0.00,BKN,,0.00,WeatherDisplay:10.37,2013-07-18 06:36:00,
2013-07-18 02:41:00,73.2,57.5,30.03,WSW,248,0.0,0.0,58,0.00,BKN,,0.00,WeatherDisplay:10.37,2013-07-18 06:41:00,
2013-07-18 02:46:00,73.1,57.5,30.03,WSW,248,0.0,0.0,58,0.00,BKN,,0.00,WeatherDisplay:10.37,2013-07-18 06:46:00,
2013-07-18 02:51:00,73.1,57.5,30.03,SW,225,0.0,0.0,58,0.00,BKN,,0.00,WeatherDisplay:10.37,2013-07-18 06:51:00,
2013-07-18 02:56:00,72.9,57.7,30.03,South,180,0.0,0.0,59,0.00,BKN,,0.00,WeatherDisplay:10.37,2013-07-18 06:56:00,
2013-07-18 03:01:00,72.4,56.3,30.03,SW,225,0.0,0.0,57,0.00,SCT,,0.00,WeatherDisplay:10.37,2013-07-18 07:01:00,
2013-07-18 03:06:00,72.2,56.6,30.03,SSW,202,0.0,0.0,58,0.00,SCT,,0.00,WeatherDisplay:10.37,2013-07-18 07:06:00,
2013-07-18 03:11:00,71.9,56.4,30.03,SSW,202,0.0,0.0,58,0.00,SCT,,0.00,WeatherDisplay:10.37,2013-07-18 07:11:00,
2013-07-18 03:16:00,71.7,55.7,30.03,SW,225,0.0,0.0,57,0.00,SCT,,0.00,WeatherDisplay:10.37,2013-07-18 07:16:00,
2013-07-18 03:21:00,71.6,55.6,30.03,SW,225,0.0,0.0,57,0.00,SCT,,0.00,WeatherDisplay:10.37,2013-07-18 07:21:00,
2013-07-18 03:26:00,71.5,55.5,30.03,SW,225,0.0,0.0,57,0.00,SCT,,0.00,WeatherDisplay:10.37,2013-07-18 07:26:00,
2013-07-18 03:31:00,71.2,55.1,30.03,South,180,0.0,0.0,57,0.00,SCT,,0.00,WeatherDisplay:10.37,2013-07-18 07:31:00,
2013-07-18 03:36:00,71.0,55.0,30.03,South,180,0.0,0.0,57,0.00,SCT,,0.00,WeatherDisplay:10.37,2013-07-18 07:36:00,
2013-07-18 03:41:00,70.8,54.3,30.03,SSW,202,0.0,0.0,56,0.00,SCT,,0.00,WeatherDisplay:10.37,2013-07-18 07:41:00,
2013-07-18 03:46:00,70.8,55.7,30.03,WSW,248,0.0,0.0,59,0.00,SCT,,0.00,WeatherDisplay:10.37,2013-07-18 07:46:00,
2013-07-18 03:51:00,70.3,54.8,30.03,SW,225,0.0,0.0,58,0.00,SCT,,0.00,WeatherDisplay:10.37,2013-07-18 07:51:00,
2013-07-18 03:56:00,70.3,54.3,30.03,West,270,0.0,0.0,57,0.00,SCT,,0.00,WeatherDisplay:10.37,2013-07-18 07:56:00,
2013-07-18 04:01:00,70.0,53.6,30.03,SSW,202,0.0,0.0,56,0.00,CLR,,0.00,WeatherDisplay:10.37,2013-07-18 08:01:00,
2013-07-18 04:06:00,70.0,54.6,30.03,West,270,0.0,0.0,58,0.00,CLR,,0.00,WeatherDisplay:10.37,2013-07-18 08:06:00,
2013-07-18 04:11:00,69.9,54.0,30.03,WNW,292,0.0,0.0,57,0.00,CLR,,0.00,WeatherDisplay:10.37,2013-07-18 08:11:00,
2013-07-18 04:16:00,69.9,54.4,30.03,SW,225,0.0,0.0,58,0.00,CLR,,0.00,WeatherDisplay:10.37,2013-07-18 08:16:00,
2013-07-18 04:21:00,70.0,54.0,30.03,SW,225,0.0,0.0,57,0.00,CLR,,0.00,WeatherDisplay:10.37,2013-07-18 08:21:00,
2013-07-18 04:26:00,69.9,54.0,30.03,SSW,202,0.0,0.0,57,0.00,CLR,,0.00,WeatherDisplay:10.37,2013-07-18 08:26:00,
2013-07-18 04:31:00,69.9,54.4,30.03,SW,225,0.0,0.0,58,0.00,CLR,,0.00,WeatherDisplay:10.37,2013-07-18 08:31:00,
2013-07-18 04:36:00,70.1,54.2,30.03,SW,225,0.0,0.0,57,0.00,CLR,,0.00,WeatherDisplay:10.37,2013-07-18 08:36:00,
2013-07-18 04:41:00,70.1,53.7,30.03,SW,225,0.0,0.0,56,0.00,CLR,,0.00,WeatherDisplay:10.37,2013-07-18 08:41:00,
2013-07-18 04:46:00,70.3,54.3,30.03,WSW,248,0.0,0.0,57,0.00,CLR,,0.00,WeatherDisplay:10.37,2013-07-18 08:46:00,
2013-07-18 04:51:00,70.3,54.3,30.03,WSW,248,0.0,0.0,57,0.00,CLR,,0.00,WeatherDisplay:10.37,2013-07-18 08:51:00,
2013-07-18 04:56:00,70.4,54.4,30.03,SW,225,0.0,0.0,57,0.00,CLR,,0.00,WeatherDisplay:10.37,2013-07-18 08:56:00,
2013-07-18 05:01:00,70.5,54.6,30.03,WSW,248,0.0,0.0,57,0.00,CLR,,0.00,WeatherDisplay:10.37,2013-07-18 09:01:00,
2013-07-18 05:06:00,70.1,54.2,30.03,SSW,202,0.0,0.0,57,0.00,CLR,,0.00,WeatherDisplay:10.37,2013-07-18 09:06:00,
2013-07-18 05:11:00,70.2,54.7,30.03,SSW,202,0.0,0.0,58,0.00,CLR,,0.00,WeatherDisplay:10.37,2013-07-18 09:11:00,
2013-07-18 05:16:00,70.2,54.2,30.03,SW,225,0.0,0.0,57,0.00,CLR,,0.00,WeatherDisplay:10.37,2013-07-18 09:16:00,
2013-07-18 05:21:00,70.0,54.0,30.03,SW,225,0.0,0.0,57,0.00,CLR,,0.00,WeatherDisplay:10.37,2013-07-18 09:21:00,
2013-07-18 05:26:00,69.9,54.4,30.03,WSW,248,0.0,0.0,58,0.00,CLR,,0.00,WeatherDisplay:10.37,2013-07-18 09:26:00,
2013-07-18 05:31:00,69.9,54.4,30.03,WSW,248,0.0,0.0,58,0.00,CLR,,0.00,WeatherDisplay:10.37,2013-07-18 09:31:00,
2013-07-18 05:36:00,69.5,54.0,30.03,SW,225,0.0,0.0,58,0.00,CLR,,0.00,WeatherDisplay:10.37,2013-07-18 09:36:00,
2013-07-18 05:41:00,69.4,53.5,30.03,West,270,0.0,0.0,57,0.00,CLR,,0.00,WeatherDisplay:10.37,2013-07-18 09:41:00,
2013-07-18 05:46:00,69.0,53.1,30.03,WSW,248,0.0,0.0,57,0.00,CLR,,0.00,WeatherDisplay:10.37,2013-07-18 09:46:00,
2013-07-18 05:51:00,68.9,53.5,30.03,SSW,202,0.0,0.0,58,0.00,CLR,,0.00,WeatherDisplay:10.37,2013-07-18 09:51:00,
2013-07-18 05:56:00,68.8,53.0,30.03,SW,225,0.0,0.0,57,0.00,CLR,,0.00,WeatherDisplay:10.37,2013-07-18 09:56:00,
2013-07-18 06:01:00,69.0,53.1,30.04,SW,225,0.0,0.0,57,0.00,CLR,,0.00,WeatherDisplay:10.37,2013-07-18 10:01:00,
2013-07-18 06:06:00,69.2,53.3,30.04,WSW,248,0.0,0.0,57,0.00,CLR,,0.00,WeatherDisplay:10.37,2013-07-18 10:06:00,
2013-07-18 06:11:00,69.3,53.4,30.04,SW,225,0.0,0.0,57,0.00,CLR,,0.00,WeatherDisplay:10.37,2013-07-18 10:11:00,
2013-07-18 06:16:00,69.8,54.4,30.04,SW,225,0.0,0.0,58,0.00,CLR,,0.00,WeatherDisplay:10.37,2013-07-18 10:16:00,
2013-07-18 06:21:00,70.3,54.8,30.04,SW,225,0.0,0.0,58,0.00,CLR,,0.00,WeatherDisplay:10.37,2013-07-18 10:21:00,
2013-07-18 06:26:00,70.7,55.2,30.04,South,180,0.0,0.0,58,0.00,CLR,,0.00,WeatherDisplay:10.37,2013-07-18 10:26:00,
2013-07-18 06:31:00,71.1,55.6,30.04,SW,225,0.0,0.0,58,0.00,CLR,,0.00,WeatherDisplay:10.37,2013-07-18 10:31:00,
2013-07-18 06:36:00,71.3,56.2,30.04,South,180,0.0,0.0,59,0.00,CLR,,0.00,WeatherDisplay:10.37,2013-07-18 10:36:00,
2013-07-18 06:41:00,71.0,55.0,30.04,South,180,0.0,0.0,57,0.00,CLR,,0.00,WeatherDisplay:10.37,2013-07-18 10:41:00,
2013-07-18 06:46:00,71.4,57.2,30.04,SW,225,0.0,0.0,61,0.00,CLR,,0.00,WeatherDisplay:10.37,2013-07-18 10:46:00,
2013-07-18 06:51:00,71.9,57.2,30.04,SW,225,0.0,0.0,60,0.00,CLR,,0.00,WeatherDisplay:10.37,2013-07-18 10:51:00,
2013-07-18 06:56:00,72.1,58.4,30.04,SW,225,0.0,0.0,62,0.00,CLR,,0.00,WeatherDisplay:10.37,2013-07-18 10:56:00,
2013-07-18 07:01:00,72.3,58.5,30.06,South,180,0.0,0.0,62,0.00,SCT,,0.00,WeatherDisplay:10.37,2013-07-18 11:01:00,
2013-07-18 07:06:00,73.1,59.7,30.06,SW,225,0.0,0.0,63,0.00,SCT,,0.00,WeatherDisplay:10.37,2013-07-18 11:06:00,
2013-07-18 07:11:00,73.2,59.4,30.06,SSW,202,0.0,0.0,62,0.00,SCT,,0.00,WeatherDisplay:10.37,2013-07-18 11:11:00,
2013-07-18 07:16:00,73.4,60.0,30.06,SW,225,0.0,0.0,63,0.00,SCT,,0.00,WeatherDisplay:10.37,2013-07-18 11:16:00,
2013-07-18 07:21:00,73.6,60.2,30.06,NNW,338,0.0,0.0,63,0.00,SCT,,0.00,WeatherDisplay:10.37,2013-07-18 11:21:00,
2013-07-18 07:26:00,74.1,60.2,30.06,West,270,0.0,0.0,62,0.00,SCT,,0.00,WeatherDisplay:10.37,2013-07-18 11:26:00,
2013-07-18 07:31:00,74.1,60.3,30.06,NW,315,3.5,3.5,62,0.00,SCT,,0.00,WeatherDisplay:10.37,2013-07-18 11:31:00,
2013-07-18 07:36:00,74.4,60.5,30.06,NNE,22,4.6,4.6,62,0.00,SCT,,0.00,WeatherDisplay:10.37,2013-07-18 11:36:00,
2013-07-18 07:41:00,74.4,60.9,30.06,NW,315,1.2,1.2,63,0.00,SCT,,0.00,WeatherDisplay:10.37,2013-07-18 11:41:00,
2013-07-18 07:46:00,74.5,61.1,30.06,WNW,292,3.5,0.0,63,0.00,SCT,,0.00,WeatherDisplay:10.37,2013-07-18 11:46:00,
2013-07-18 07:51:00,74.9,59.1,30.06,ESE,112,5.8,5.8,58,0.00,SCT,,0.00,WeatherDisplay:10.37,2013-07-18 11:51:00,
2013-07-18 07:56:00,75.1,60.3,30.06,NNW,338,6.9,6.9,60,0.00,SCT,,0.00,WeatherDisplay:10.37,2013-07-18 11:56:00,
2013-07-18 08:01:00,75.5,60.6,30.06,NW,315,3.5,3.5,60,0.00,CLR,,0.00,WeatherDisplay:10.37,2013-07-18 12:01:00,
2013-07-18 08:06:00,76.0,60.7,30.06,NW,315,1.2,1.2,59,0.00,CLR,,0.00,WeatherDisplay:10.37,2013-07-18 12:06:00,
2013-07-18 08:11:00,76.8,61.8,30.06,NNW,338,0.0,0.1,60,0.00,CLR,,0.00,WeatherDisplay:10.37,2013-07-18 12:11:00,
2013-07-18 08:16:00,77.6,63.0,30.06,North,360,10.4,10.4,61,0.00,CLR,,0.00,WeatherDisplay:10.37,2013-07-18 12:16:00,
2013-07-18 08:21:00,78.0,63.5,30.06,WSW,248,5.8,5.8,61,0.00,CLR,,0.00,WeatherDisplay:10.37,2013-07-18 12:21:00,
2013-07-18 08:26:00,78.5,63.9,30.06,SE,135,3.5,3.5,61,0.00,CLR,,0.00,WeatherDisplay:10.37,2013-07-18 12:26:00,
2013-07-18 08:31:00,78.9,64.3,30.06,NNE,22,9.2,9.2,61,0.00,CLR,,0.00,WeatherDisplay:10.37,2013-07-18 12:31:00,
2013-07-18 08:36:00,78.9,64.3,30.06,WNW,292,8.1,8.1,61,0.00,CLR,,0.00,WeatherDisplay:10.37,2013-07-18 12:36:00,
2013-07-18 08:41:00,79.2,65.0,30.06,NNE,22,7.8,7.8,62,0.00,CLR,,0.00,WeatherDisplay:10.37,2013-07-18 12:41:00,
2013-07-18 08:46:00,79.3,65.1,30.06,NW,315,9.3,9.3,62,0.00,CLR,,0.00,WeatherDisplay:10.37,2013-07-18 12:46:00,
2013-07-18 08:51:00,79.0,64.4,30.06,NW,315,10.4,10.4,61,0.00,CLR,,0.00,WeatherDisplay:10.37,2013-07-18 12:51:00,
2013-07-18 08:56:00,79.5,64.8,30.06,NE,45,6.9,6.9,61,0.00,CLR,,0.00,WeatherDisplay:10.37,2013-07-18 12:56:00,
2013-07-18 09:01:00,79.4,72.0,30.07,NNW,338,11.5,11.5,78,0.00,SCT,,0.00,WeatherDisplay:10.37,2013-07-18 13:01:00,
2013-07-18 09:06:00,80.0,65.8,30.07,West,270,8.1,8.1,62,0.00,SCT,,0.00,WeatherDisplay:10.37,2013-07-18 13:06:00,
2013-07-18 09:11:00,80.7,66.4,30.07,NNW,338,11.5,11.5,62,0.00,SCT,,0.00,WeatherDisplay:10.37,2013-07-18 13:11:00,
2013-07-18 09:16:00,80.9,66.6,30.07,North,360,4.6,4.6,62,0.00,SCT,,0.00,WeatherDisplay:10.37,2013-07-18 13:16:00,
2013-07-18 09:21:00,81.5,67.2,30.07,North,360,8.1,8.1,62,0.00,SCT,,0.00,WeatherDisplay:10.37,2013-07-18 13:21:00,
2013-07-18 09:26:00,81.4,67.1,30.07,North,360,10.4,10.4,62,0.00,SCT,,0.00,WeatherDisplay:10.37,2013-07-18 13:26:00,
2013-07-18 09:31:00,81.7,67.4,30.07,NNW,338,6.9,6.9,62,0.00,SCT,,0.00,WeatherDisplay:10.37,2013-07-18 13:31:00,
2013-07-18 09:36:00,82.1,67.8,30.07,NNE,22,6.9,6.9,62,0.00,SCT,,0.00,WeatherDisplay:10.37,2013-07-18 13:36:00,
2013-07-18 09:41:00,82.9,75.3,30.07,WNW,292,4.7,4.7,78,0.00,SCT,,0.00,WeatherDisplay:10.37,2013-07-18 13:41:00,
2013-07-18 09:46:00,83.1,71.0,30.07,NW,315,9.2,9.2,67,0.00,SCT,,0.00,WeatherDisplay:10.37,2013-07-18 13:46:00,
2013-07-18 09:51:00,83.7,69.3,30.07,NW,315,6.9,6.9,62,0.00,SCT,,0.00,WeatherDisplay:10.37,2013-07-18 13:51:00,
2013-07-18 09:56:00,83.7,76.1,30.07,NW,315,6.9,6.9,78,0.00,SCT,,0.00,WeatherDisplay:10.37,2013-07-18 13:56:00,
2013-07-18 10:01:00,83.9,67.5,30.06,North,360,11.2,11.2,58,0.00,SCT,,0.00,WeatherDisplay:10.37,2013-07-18 14:01:00,
2013-07-18 10:06:00,83.4,69.0,30.06,North,360,5.8,5.8,62,0.00,SCT,,0.00,WeatherDisplay:10.37,2013-07-18 14:06:00,
2013-07-18 10:11:00,83.7,68.8,30.06,NW,315,3.5,3.5,61,0.00,SCT,,0.00,WeatherDisplay:10.37,2013-07-18 14:11:00,
2013-07-18 10:16:00,84.7,70.7,30.06,South,180,8.1,8.1,63,0.00,SCT,,0.00,WeatherDisplay:10.37,2013-07-18 14:16:00,
2013-07-18 10:22:00,84.8,70.8,30.06,West,270,6.9,6.9,63,0.00,SCT,,0.00,WeatherDisplay:10.37,2013-07-18 14:22:00,
2013-07-18 10:26:00,85.2,72.6,30.06,East,90,11.5,11.5,66,0.00,SCT,,0.00,WeatherDisplay:10.37,2013-07-18 14:26:00,
2013-07-18 10:31:00,84.7,71.2,30.06,NNE,22,11.5,11.5,64,0.00,SCT,,0.00,WeatherDisplay:10.37,2013-07-18 14:31:00,
2013-07-18 10:36:00,85.4,71.4,30.06,NW,315,5.8,5.8,63,0.00,SCT,,0.00,WeatherDisplay:10.37,2013-07-18 14:36:00,
2013-07-18 10:41:00,85.9,73.2,30.06,South,180,9.9,9.9,66,0.00,SCT,,0.00,WeatherDisplay:10.37,2013-07-18 14:41:00,
2013-07-18 10:46:00,86.2,72.6,30.06,West,270,8.1,8.1,64,0.00,SCT,,0.00,WeatherDisplay:10.37,2013-07-18 14:46:00,
2013-07-18 10:51:00,86.2,73.1,30.06,NNE,22,8.1,8.1,65,0.00,SCT,,0.00,WeatherDisplay:10.37,2013-07-18 14:51:00,
2013-07-18 10:56:00,85.6,72.0,30.06,NW,315,9.2,9.2,64,0.00,SCT,,0.00,WeatherDisplay:10.37,2013-07-18 14:56:00,
2013-07-18 11:01:00,86.3,73.2,30.05,West,270,6.0,6.0,65,0.00,CLR,,0.00,WeatherDisplay:10.37,2013-07-18 15:01:00,
2013-07-18 11:06:00,86.4,72.3,30.05,SSE,158,9.2,9.2,63,0.00,CLR,,0.00,WeatherDisplay:10.37,2013-07-18 15:06:00,
2013-07-18 11:11:00,86.1,72.5,30.05,North,360,16.1,16.1,64,0.00,CLR,,0.00,WeatherDisplay:10.37,2013-07-18 15:11:00,
2013-07-18 11:16:00,85.3,72.2,30.05,NE,45,16.1,16.1,65,0.00,CLR,,0.00,WeatherDisplay:10.37,2013-07-18 15:16:00,
2013-07-18 11:21:00,85.1,72.0,30.05,NNW,338,9.2,9.2,65,0.00,CLR,,0.00,WeatherDisplay:10.37,2013-07-18 15:21:00,
2013-07-18 11:26:00,86.0,72.4,30.04,NNW,338,11.5,11.5,64,0.00,SCT,,0.00,WeatherDisplay:10.37,2013-07-18 15:26:00,
2013-07-18 11:31:00,86.1,72.5,30.04,WNW,292,15.1,15.1,64,0.00,SCT,,0.00,WeatherDisplay:10.37,2013-07-18 15:31:00,
2013-07-18 11:36:00,86.3,72.7,30.04,North,360,11.5,11.5,64,0.00,SCT,,0.00,WeatherDisplay:10.37,2013-07-18 15:36:00,
2013-07-18 11:41:00,85.6,72.0,30.04,NW,315,10.4,10.4,64,0.00,SCT,,0.00,WeatherDisplay:10.37,2013-07-18 15:41:00,
2013-07-18 11:46:00,85.4,72.3,30.04,ENE,68,13.8,13.8,65,0.00,SCT,,0.00,WeatherDisplay:10.37,2013-07-18 15:46:00,
2013-07-18 11:52:00,85.7,72.1,30.04,WNW,292,9.2,9.2,64,0.00,SCT,,0.00,WeatherDisplay:10.37,2013-07-18 15:52:00,
2013-07-18 11:57:00,86.2,73.1,30.04,NE,45,15.0,15.0,65,0.00,SCT,,0.00,WeatherDisplay:10.37,2013-07-18 15:57:00,
2013-07-18 12:02:00,86.2,72.6,30.04,North,360,18.4,18.4,64,0.00,SCT,,0.00,WeatherDisplay:10.37,2013-07-18 16:02:00,
2013-07-18 12:07:00,86.7,73.1,30.04,NW,315,9.2,9.2,64,0.00,SCT,,0.00,WeatherDisplay:10.37,2013-07-18 16:07:00,
2013-07-18 12:12:00,86.5,72.9,30.04,SSE,158,13.8,13.8,64,0.00,SCT,,0.00,WeatherDisplay:10.37,2013-07-18 16:12:00,
2013-07-18 12:17:00,86.4,72.3,30.04,North,360,16.1,16.1,63,0.00,SCT,,0.00,WeatherDisplay:10.37,2013-07-18 16:17:00,
2013-07-18 12:22:00,86.2,72.6,30.04,NW,315,15.0,15.0,64,0.00,SCT,,0.00,WeatherDisplay:10.37,2013-07-18 16:22:00,
2013-07-18 12:27:00,86.0,73.3,30.04,East,90,16.1,16.1,66,0.00,SCT,,0.00,WeatherDisplay:10.37,2013-07-18 16:27:00,
2013-07-18 12:32:00,86.8,73.2,30.04,WNW,292,9.2,9.2,64,0.00,SCT,,0.00,WeatherDisplay:10.37,2013-07-18 16:32:00,
2013-07-18 12:37:00,86.5,72.9,30.04,NNW,338,13.8,13.8,64,0.00,SCT,,0.00,WeatherDisplay:10.37,2013-07-18 16:37:00,
2013-07-18 12:42:00,85.6,72.0,30.04,SW,225,19.6,19.6,64,0.00,SCT,,0.00,WeatherDisplay:10.37,2013-07-18 16:42:00,
2013-07-18 12:47:00,86.2,73.0,30.04,NNW,338,9.2,9.2,65,0.00,SCT,,0.00,WeatherDisplay:10.37,2013-07-18 16:47:00,
2013-07-18 12:52:00,85.8,73.2,30.04,NW,315,13.8,13.8,66,0.00,SCT,,0.00,WeatherDisplay:10.37,2013-07-18 16:52:00,
2013-07-18 12:57:00,85.7,72.1,30.04,NW,315,8.3,8.3,64,0.00,SCT,,0.00,WeatherDisplay:10.37,2013-07-18 16:57:00,
2013-07-18 13:02:00,86.7,73.6,30.03,SW,225,9.2,9.2,65,0.00,CLR,,0.00,WeatherDisplay:10.37,2013-07-18 17:02:00,
2013-07-18 13:07:00,86.9,73.3,30.03,WNW,292,8.1,8.1,64,0.00,CLR,,0.00,WeatherDisplay:10.37,2013-07-18 17:07:00,
2013-07-18 13:12:00,86.6,72.5,30.03,NNE,22,13.8,13.8,63,0.00,CLR,,0.00,WeatherDisplay:10.37,2013-07-18 17:12:00,
2013-07-18 13:17:00,86.6,72.9,30.03,North,360,5.8,5.8,64,0.00,CLR,,0.00,WeatherDisplay:10.37,2013-07-18 17:17:00,
2013-07-18 13:22:00,86.8,73.2,30.03,NW,315,15.0,15.0,64,0.00,CLR,,0.00,WeatherDisplay:10.37,2013-07-18 17:22:00,
2013-07-18 13:27:00,88.1,74.4,30.03,SSW,202,11.5,11.5,64,0.00,CLR,,0.00,WeatherDisplay:10.37,2013-07-18 17:27:00,
2013-07-18 13:32:00,89.2,75.8,30.03,SSE,158,5.8,5.8,65,0.00,CLR,,0.00,WeatherDisplay:10.37,2013-07-18 17:32:00,
2013-07-18 13:37:00,88.5,74.3,30.03,NW,315,13.8,13.8,63,0.00,CLR,,0.00,WeatherDisplay:10.37,2013-07-18 17:37:00,
2013-07-18 13:42:00,87.2,74.0,30.03,ENE,68,16.1,16.1,65,0.00,CLR,,0.00,WeatherDisplay:10.37,2013-07-18 17:42:00,
2013-07-18 13:47:00,87.9,74.2,30.03,NNW,338,12.7,12.7,64,0.00,CLR,,0.00,WeatherDisplay:10.37,2013-07-18 17:47:00,
2013-07-18 13:52:00,89.2,75.4,30.03,South,180,8.1,8.1,64,0.00,CLR,,0.00,WeatherDisplay:10.37,2013-07-18 17:52:00,
2013-07-18 13:57:00,89.9,76.1,30.03,West,270,10.6,10.6,64,0.00,CLR,,0.00,WeatherDisplay:10.37,2013-07-18 17:57:00,
2013-07-18 14:02:00,89.2,75.4,30.01,WNW,292,11.5,11.5,64,0.00,SCT,,0.00,WeatherDisplay:10.37,2013-07-18 18:02:00,
2013-07-18 14:07:00,90.2,76.9,30.01,WNW,292,9.2,9.2,65,0.00,SCT,,0.00,WeatherDisplay:10.37,2013-07-18 18:07:00,
2013-07-18 14:12:00,91.1,77.2,30.01,South,180,11.5,11.5,64,0.00,SCT,,0.00,WeatherDisplay:10.37,2013-07-18 18:12:00,
2013-07-18 14:17:00,91.7,78.8,30.01,South,180,9.2,9.2,66,0.00,SCT,,0.00,WeatherDisplay:10.37,2013-07-18 18:17:00,
2013-07-18 14:22:00,93.3,79.7,30.01,South,180,4.6,4.6,65,0.00,SCT,,0.00,WeatherDisplay:10.37,2013-07-18 18:22:00,
2013-07-18 14:27:00,93.8,80.3,30.01,NW,315,7.4,7.4,65,0.00,SCT,,0.00,WeatherDisplay:10.37,2013-07-18 18:27:00,
2013-07-18 14:32:00,92.8,79.3,30.01,SW,225,6.9,6.9,65,0.00,SCT,,0.00,WeatherDisplay:10.37,2013-07-18 18:32:00,
2013-07-18 14:37:00,92.0,78.6,30.01,NNW,338,6.9,6.9,65,0.00,SCT,,0.00,WeatherDisplay:10.37,2013-07-18 18:37:00,
2013-07-18 14:42:00,91.1,77.7,30.01,West,270,13.8,13.8,65,0.00,SCT,,0.00,WeatherDisplay:10.37,2013-07-18 18:42:00,
2013-07-18 14:47:00,92.0,78.6,30.01,SSE,158,6.9,6.9,65,0.00,SCT,,0.00,WeatherDisplay:10.37,2013-07-18 18:47:00,
2013-07-18 14:52:00,93.3,79.7,30.01,SW,225,13.8,13.8,65,0.00,SCT,,0.00,WeatherDisplay:10.37,2013-07-18 18:52:00,
2013-07-18 14:57:00,93.3,79.7,30.01,NW,315,10.4,10.4,65,0.00,SCT,,0.00,WeatherDisplay:10.37,2013-07-18 18:57:00,
2013-07-18 15:02:00,93.5,80.4,29.98,SW,225,6.9,6.9,66,0.00,CLR,,0.00,WeatherDisplay:10.37,2013-07-18 19:02:00,
2013-07-18 15:07:00,94.6,81.0,29.98,West,270,6.0,6.0,65,0.00,CLR,,0.00,WeatherDisplay:10.37,2013-07-18 19:07:00,
2013-07-18 15:12:00,93.4,79.8,29.98,NW,315,19.6,19.6,65,0.00,CLR,,0.00,WeatherDisplay:10.37,2013-07-18 19:12:00,
2013-07-18 15:17:00,92.6,79.6,29.98,South,180,6.9,6.9,66,0.00,CLR,,0.00,WeatherDisplay:10.37,2013-07-18 19:17:00,
2013-07-18 15:22:00,92.9,79.4,29.98,West,270,11.5,11.5,65,0.00,CLR,,0.00,WeatherDisplay:10.37,2013-07-18 19:22:00,
2013-07-18 15:27:00,93.8,79.8,29.98,WNW,292,8.1,8.1,64,0.00,CLR,,0.00,WeatherDisplay:10.37,2013-07-18 19:27:00,
2013-07-18 15:32:00,94.0,80.0,29.98,East,90,4.6,4.6,64,0.00,CLR,,0.00,WeatherDisplay:10.37,2013-07-18 19:32:00,
2013-07-18 15:37:00,94.2,80.6,29.98,WSW,248,5.8,5.8,65,0.00,CLR,,0.00,WeatherDisplay:10.37,2013-07-18 19:37:00,
2013-07-18 15:42:00,94.4,81.3,29.98,NE,45,9.2,9.2,66,0.00,CLR,,0.00,WeatherDisplay:10.37,2013-07-18 19:42:00,
2013-07-18 15:47:00,94.2,80.6,29.98,West,270,6.9,6.9,65,0.00,CLR,,0.00,WeatherDisplay:10.37,2013-07-18 19:47:00,
2013-07-18 15:52:00,94.3,80.7,29.98,SW,225,15.0,15.0,65,0.00,CLR,,0.00,WeatherDisplay:10.37,2013-07-18 19:52:00,
2013-07-18 15:57:00,95.1,81.0,29.98,WSW,248,4.6,4.6,64,0.00,CLR,,0.00,WeatherDisplay:10.37,2013-07-18 19:57:00,
2013-07-18 16:02:00,94.7,80.6,29.96,NW,315,8.1,8.1,64,0.00,FEW,,0.00,WeatherDisplay:10.37,2013-07-18 20:02:00,
2013-07-18 16:08:00,95.4,82.2,29.96,South,180,4.6,4.6,66,0.00,FEW,,0.00,WeatherDisplay:10.37,2013-07-18 20:08:00,
2013-07-18 16:13:00,95.8,82.7,29.96,ESE,112,3.5,3.5,66,0.00,FEW,,0.00,WeatherDisplay:10.37,2013-07-18 20:13:00,
2013-07-18 16:18:00,95.7,81.5,29.96,NNW,338,6.3,6.3,64,0.00,FEW,,0.00,WeatherDisplay:10.37,2013-07-18 20:18:00,
2013-07-18 16:23:00,95.6,81.9,29.96,South,180,9.2,9.2,65,0.00,FEW,,0.00,WeatherDisplay:10.37,2013-07-18 20:23:00,
2013-07-18 16:28:00,95.4,81.8,29.96,SW,225,3.5,3.5,65,0.00,FEW,,0.00,WeatherDisplay:10.37,2013-07-18 20:28:00,
2013-07-18 16:33:00,94.9,81.3,29.96,SE,135,9.2,9.2,65,0.00,FEW,,0.00,WeatherDisplay:10.37,2013-07-18 20:33:00,
2013-07-18 16:38:00,94.3,80.2,29.96,SSW,202,4.6,4.6,64,0.00,FEW,,0.00,WeatherDisplay:10.37,2013-07-18 20:38:00,
2013-07-18 16:43:00,94.2,80.6,29.96,ESE,112,10.4,10.4,65,0.00,FEW,,0.00,WeatherDisplay:10.37,2013-07-18 20:43:00,
2013-07-18 16:48:00,93.4,80.3,29.96,WNW,292,11.5,11.5,66,0.00,FEW,,0.00,WeatherDisplay:10.37,2013-07-18 20:48:00,
2013-07-18 16:53:00,93.3,79.3,29.96,NNE,22,8.1,8.1,64,0.00,FEW,,0.00,WeatherDisplay:10.37,2013-07-18 20:53:00,
2013-07-18 16:58:00,93.2,79.2,29.96,NW,315,8.1,8.1,64,0.00,FEW,,0.00,WeatherDisplay:10.37,2013-07-18 20:58:00,
2013-07-18 17:03:00,92.9,78.9,29.97,SW,225,5.0,5.0,64,0.00,BKN,,0.00,WeatherDisplay:10.37,2013-07-18 21:03:00,
2013-07-18 17:08:00,93.0,79.0,29.97,WSW,248,4.6,4.6,64,0.00,BKN,,0.00,WeatherDisplay:10.37,2013-07-18 21:08:00,
2013-07-18 17:13:00,92.6,78.6,29.97,NW,315,1.5,1.5,64,0.00,BKN,,0.00,WeatherDisplay:10.37,2013-07-18 21:13:00,
2013-07-18 17:18:00,91.9,78.0,29.97,West,270,3.5,3.5,64,0.00,BKN,,0.00,WeatherDisplay:10.37,2013-07-18 21:18:00,
2013-07-18 17:23:00,91.9,77.9,29.97,South,180,1.2,1.2,64,0.00,BKN,,0.00,WeatherDisplay:10.37,2013-07-18 21:23:00,
2013-07-18 17:28:00,91.8,77.9,29.97,NNW,338,3.5,3.5,64,0.00,BKN,,0.00,WeatherDisplay:10.37,2013-07-18 21:28:00,
2013-07-18 17:33:00,92.0,78.0,29.97,SE,135,3.3,3.3,64,0.00,BKN,,0.00,WeatherDisplay:10.37,2013-07-18 21:33:00,
2013-07-18 17:38:00,91.6,77.7,29.97,South,180,8.1,8.1,64,0.00,BKN,,0.00,WeatherDisplay:10.37,2013-07-18 21:38:00,
2013-07-18 17:43:00,91.5,77.6,29.97,West,270,1.2,0.0,64,0.00,BKN,,0.00,WeatherDisplay:10.37,2013-07-18 21:43:00,
2013-07-18 17:48:00,91.0,77.1,29.97,South,180,1.5,1.5,64,0.00,BKN,,0.00,WeatherDisplay:10.37,2013-07-18 21:48:00,
2013-07-18 17:53:00,90.4,76.1,29.97,WSW,248,0.0,0.0,63,0.00,BKN,,0.00,WeatherDisplay:10.37,2013-07-18 21:53:00,
2013-07-18 17:58:00,90.2,75.9,29.97,South,180,3.0,3.0,63,0.00,BKN,,0.00,WeatherDisplay:10.37,2013-07-18 21:58:00,
2013-07-18 18:03:00,89.5,75.2,29.96,SW,225,3.5,3.5,63,0.00,BKN,,0.00,WeatherDisplay:10.37,2013-07-18 22:03:00,
2013-07-18 18:08:00,88.4,74.7,29.96,SW,225,1.5,1.5,64,0.00,BKN,,0.00,WeatherDisplay:10.37,2013-07-18 22:08:00,
2013-07-18 18:13:00,88.2,74.0,29.96,South,180,1.2,1.2,63,0.00,BKN,,0.00,WeatherDisplay:10.37,2013-07-18 22:13:00,
2013-07-18 18:18:00,87.9,73.2,29.96,SSE,158,3.5,3.5,62,0.00,BKN,,0.00,WeatherDisplay:10.37,2013-07-18 22:18:00,
2013-07-18 18:23:00,87.5,72.9,29.96,South,180,4.6,4.6,62,0.00,BKN,,0.00,WeatherDisplay:10.37,2013-07-18 22:23:00,
2013-07-18 18:28:00,86.8,72.3,29.96,SW,225,4.6,4.6,62,0.00,BKN,,0.00,WeatherDisplay:10.37,2013-07-18 22:28:00,
2013-07-18 18:33:00,86.6,71.5,29.96,SSE,158,3.5,3.5,61,0.00,BKN,,0.00,WeatherDisplay:10.37,2013-07-18 22:33:00,
2013-07-18 18:38:00,85.7,70.7,29.96,South,180,4.6,4.6,61,0.00,BKN,,0.00,WeatherDisplay:10.37,2013-07-18 22:38:00,
2013-07-18 18:43:00,84.9,69.4,29.96,SSE,158,4.6,4.6,60,0.00,BKN,,0.00,WeatherDisplay:10.37,2013-07-18 22:43:00,
2013-07-18 18:48:00,84.0,67.7,29.96,West,270,1.5,1.5,58,0.00,BKN,,0.00,WeatherDisplay:10.37,2013-07-18 22:48:00,
2013-07-18 18:53:00,80.2,63.6,29.96,NNW,338,13.8,13.8,57,0.01,RA,,0.02,WeatherDisplay:10.37,2013-07-18 22:53:00,
2013-07-18 18:58:00,74.0,57.8,29.96,NNW,338,32.2,32.2,57,0.02,RA,,0.02,WeatherDisplay:10.37,2013-07-18 22:58:00,
2013-07-18 19:03:00,71.4,55.9,29.97,WSW,248,13.8,13.8,58,0.03,RA,,0.03,WeatherDisplay:10.37,2013-07-18 23:03:00,
2013-07-18 19:08:00,71.3,55.7,29.97,SSW,202,11.5,11.5,58,0.03,RA,,0.03,WeatherDisplay:10.37,2013-07-18 23:08:00,
2013-07-18 19:13:00,71.9,55.8,29.97,ESE,112,4.6,4.6,57,0.03,OVC,,0.03,WeatherDisplay:10.37,2013-07-18 23:13:00,
2013-07-18 19:18:00,72.1,56.0,29.97,SSE,158,6.5,6.5,57,0.03,OVC,,0.03,WeatherDisplay:10.37,2013-07-18 23:18:00,
2013-07-18 19:23:00,72.2,56.1,29.97,WSW,248,0.0,0.0,57,0.03,OVC,,0.03,WeatherDisplay:10.37,2013-07-18 23:23:00,
2013-07-18 19:28:00,72.0,55.9,29.97,SW,225,0.0,0.0,57,0.03,OVC,,0.03,WeatherDisplay:10.37,2013-07-18 23:28:00,
2013-07-18 19:33:00,72.1,56.0,29.97,SSW,202,4.6,4.6,57,0.03,OVC,,0.03,WeatherDisplay:10.37,2013-07-18 23:33:00,
2013-07-18 19:38:00,72.3,56.2,29.97,West,270,3.5,3.5,57,0.03,OVC,,0.03,WeatherDisplay:10.37,2013-07-18 23:38:00,
2013-07-18 19:43:00,72.4,56.8,29.97,South,180,1.5,1.5,58,0.03,OVC,,0.03,WeatherDisplay:10.37,2013-07-18 23:43:00,
2013-07-18 19:48:00,72.6,56.5,29.97,SSW,202,3.5,3.5,57,0.03,OVC,,0.03,WeatherDisplay:10.37,2013-07-18 23:48:00,
2013-07-18 19:53:00,72.6,57.0,29.97,SSW,202,1.2,0.0,58,0.02,OVC,,0.03,WeatherDisplay:10.37,2013-07-18 23:53:00,
2013-07-18 19:58:00,72.4,56.3,29.97,East,90,1.2,1.2,57,0.01,OVC,,0.03,WeatherDisplay:10.37,2013-07-18 23:58:00,
2013-07-18 20:03:00,72.4,56.8,29.98,SW,225,1.6,1.6,58,0.00,CLR,,0.03,WeatherDisplay:10.37,2013-07-19 00:03:00,
2013-07-18 20:09:00,72.2,55.6,29.98,SW,225,1.2,1.2,56,0.00,CLR,,0.03,WeatherDisplay:10.37,2013-07-19 00:09:00,
2013-07-18 20:15:00,72.0,55.9,29.98,West,270,0.0,0.0,57,0.00,CLR,,0.03,WeatherDisplay:10.37,2013-07-19 00:15:00,
2013-07-18 20:20:00,72.2,56.1,29.98,North,360,0.0,0.0,57,0.00,CLR,,0.03,WeatherDisplay:10.37,2013-07-19 00:20:00,
2013-07-18 20:25:00,72.1,56.0,29.98,West,270,0.0,0.0,57,0.00,CLR,,0.03,WeatherDisplay:10.37,2013-07-19 00:25:00,
2013-07-18 20:30:00,71.6,56.0,29.98,WSW,248,0.0,0.0,58,0.00,CLR,,0.03,WeatherDisplay:10.37,2013-07-19 00:30:00,
2013-07-18 20:35:00,71.7,56.1,29.98,SE,135,0.0,0.0,58,0.00,CLR,,0.03,WeatherDisplay:10.37,2013-07-19 00:35:00,
2013-07-18 20:40:00,71.7,55.7,29.98,WSW,248,0.0,0.0,57,0.00,CLR,,0.03,WeatherDisplay:10.37,2013-07-19 00:40:00,
2013-07-18 20:45:00,71.5,55.5,29.98,SSE,158,0.0,0.0,57,0.00,CLR,,0.03,WeatherDisplay:10.37,2013-07-19 00:45:00,
2013-07-18 20:50:00,71.3,55.7,29.98,NW,315,0.0,0.0,58,0.00,CLR,,0.03,WeatherDisplay:10.37,2013-07-19 00:50:00,
2013-07-18 20:55:00,71.0,55.0,29.98,NW,315,4.6,4.6,57,0.00,CLR,,0.03,WeatherDisplay:10.37,2013-07-19 00:55:00,
2013-07-18 21:00:00,70.8,54.3,29.98,NW,315,1.6,1.6,56,0.00,CLR,,0.03,WeatherDisplay:10.37,2013-07-19 01:00:00,
2013-07-18 21:05:00,70.7,54.7,29.98,South,180,4.6,4.6,57,0.00,BKN,,0.03,WeatherDisplay:10.37,2013-07-19 01:05:00,
2013-07-18 21:10:00,70.8,55.2,29.98,SW,225,1.2,1.2,58,0.00,BKN,,0.03,WeatherDisplay:10.37,2013-07-19 01:10:00,
2013-07-18 21:15:00,70.8,55.2,29.98,SE,135,4.6,4.6,58,0.00,BKN,,0.03,WeatherDisplay:10.37,2013-07-19 01:15:00,
2013-07-18 21:20:00,70.7,54.7,29.98,East,90,1.5,1.5,57,0.00,BKN,,0.03,WeatherDisplay:10.37,2013-07-19 01:20:00,
2013-07-18 21:26:00,70.8,54.8,29.98,NW,315,0.0,0.0,57,0.00,BKN,,0.03,WeatherDisplay:10.37,2013-07-19 01:26:00,
2013-07-18 21:31:00,70.8,54.8,29.98,WSW,248,0.0,0.0,57,0.00,BKN,,0.03,WeatherDisplay:10.37,2013-07-19 01:31:00,
2013-07-18 21:36:00,70.6,55.6,29.98,NNE,22,0.0,0.0,59,0.00,BKN,,0.03,WeatherDisplay:10.37,2013-07-19 01:36:00,
2013-07-18 21:41:00,70.5,54.5,29.98,NW,315,0.0,0.0,57,0.00,BKN,,0.03,WeatherDisplay:10.37,2013-07-19 01:41:00,
2013-07-18 21:46:00,70.4,54.9,29.98,WNW,292,0.0,0.0,58,0.00,BKN,,0.03,WeatherDisplay:10.37,2013-07-19 01:46:00,
2013-07-18 21:51:00,70.4,54.5,29.98,SW,225,0.0,0.0,57,0.00,BKN,,0.03,WeatherDisplay:10.37,2013-07-19 01:51:00,
2013-07-18 21:56:00,70.3,54.8,29.98,ESE,112,0.0,0.0,58,0.00,BKN,,0.03,WeatherDisplay:10.37,2013-07-19 01:56:00,
2013-07-18 22:02:00,70.4,54.9,29.98,SE,135,0.0,0.0,58,0.00,CLR,,0.03,WeatherDisplay:10.37,2013-07-19 02:02:00,
2013-07-18 22:07:00,70.0,54.5,29.98,SSE,158,0.0,0.0,58,0.00,CLR,,0.03,WeatherDisplay:10.37,2013-07-19 02:07:00,
2013-07-18 22:13:00,70.0,54.0,29.98,NW,315,0.0,0.0,57,0.00,CLR,,0.03,WeatherDisplay:10.37,2013-07-19 02:13:00,
2013-07-18 22:19:00,70.0,54.1,29.98,West,270,0.0,0.0,57,0.00,CLR,,0.03,WeatherDisplay:10.37,2013-07-19 02:19:00,
2013-07-18 22:24:00,69.9,53.5,29.98,WSW,248,0.0,0.0,56,0.00,CLR,,0.03,WeatherDisplay:10.37,2013-07-19 02:24:00,
2013-07-18 22:29:00,69.9,53.4,29.98,West,270,0.0,0.0,56,0.00,CLR,,0.03,WeatherDisplay:10.37,2013-07-19 02:29:00,
2013-07-18 22:34:00,69.6,53.2,29.98,West,270,0.0,0.0,56,0.00,CLR,,0.03,WeatherDisplay:10.37,2013-07-19 02:34:00,
2013-07-18 22:39:00,69.8,53.9,29.98,West,270,0.0,0.0,57,0.00,CLR,,0.03,WeatherDisplay:10.37,2013-07-19 02:39:00,
2013-07-18 22:44:00,69.9,53.4,29.98,West,270,0.0,0.0,56,0.00,CLR,,0.03,WeatherDisplay:10.37,2013-07-19 02:44:00,
2013-07-18 22:49:00,69.7,53.8,29.98,SW,225,0.0,0.0,57,0.00,CLR,,0.03,WeatherDisplay:10.37,2013-07-19 02:49:00,
2013-07-18 22:54:00,69.5,53.6,29.98,SW,225,0.0,0.0,57,0.00,CLR,,0.03,WeatherDisplay:10.37,2013-07-19 02:54:00,
2013-07-18 22:59:00,69.6,53.7,29.98,WSW,248,0.0,0.0,57,0.00,CLR,,0.03,WeatherDisplay:10.37,2013-07-19 02:59:00,
2013-07-18 23:04:00,69.6,53.2,29.98,WNW,292,0.0,0.0,56,0.00,BKN,,0.03,WeatherDisplay:10.37,2013-07-19 03:04:00,
2013-07-18 23:09:00,69.6,53.7,29.98,West,270,0.0,0.0,57,0.00,BKN,,0.03,WeatherDisplay:10.37,2013-07-19 03:09:00,
2013-07-18 23:14:00,69.4,53.5,29.98,West,270,0.0,0.0,57,0.00,BKN,,0.03,WeatherDisplay:10.37,2013-07-19 03:14:00,
2013-07-18 23:19:00,69.1,53.2,29.98,West,270,0.0,0.0,57,0.00,BKN,,0.03,WeatherDisplay:10.37,2013-07-19 03:19:00,
2013-07-18 23:24:00,68.8,53.0,29.98,SW,225,0.0,0.0,57,0.00,BKN,,0.03,WeatherDisplay:10.37,2013-07-19 03:24:00,
2013-07-18 23:29:00,69.2,53.4,29.98,SW,225,0.0,0.0,57,0.00,BKN,,0.03,WeatherDisplay:10.37,2013-07-19 03:29:00,
2013-07-18 23:34:00,69.1,53.2,29.98,West,270,0.0,0.0,57,0.00,BKN,,0.03,WeatherDisplay:10.37,2013-07-19 03:34:00,
2013-07-18 23:39:00,69.1,52.8,29.98,NW,315,0.0,0.0,56,0.00,BKN,,0.03,WeatherDisplay:10.37,2013-07-19 03:39:00,
2013-07-18 23:44:00,69.0,52.6,29.98,NW,315,0.0,0.0,56,0.00,BKN,,0.03,WeatherDisplay:10.37,2013-07-19 03:44:00,
2013-07-18 23:49:00,68.8,53.0,29.98,West,270,0.0,0.0,57,0.00,BKN,,0.03,WeatherDisplay:10.37,2013-07-19 03:49:00,
2013-07-18 23:54:00,68.7,53.4,29.98,WNW,292,3.1,3.1,58,0.00,BKN,,0.03,WeatherDisplay:10.37,2013-07-19 03:54:00,
2013-07-18 23:59:00,68.6,52.7,29.98,West,270,0.0,0.0,57,0.00,BKN,,0.03,WeatherDisplay:10.37,2013-07-19 03:59:00,